Weather History for New York Downtown Manhattan/w, NY

Change the Weather History Date:

Tuesday, October 8, 2013

  Actual Average (KNYC) Record (KNYC)
Temperature  
Mean Temperature 63 °F 59 °F  
Max Temperature 69 °F 67 °F 87 °F (2007)
Min Temperature 57 °F 52 °F 37 °F (1988)
Degree Days  
Heating Degree Days 2 7  
Month to date heating degree days 44  
Since 1 July heating degree days 89  
Cooling Degree Days 0 1  
Month to date cooling degree days 8  
Year to date cooling degree days 1095  
Growing Degree Days 13 (Base 50)    
Moisture  
Dew Point 46 °F    
Average Humidity 53    
Maximum Humidity 77    
Minimum Humidity 40    
Precipitation  
Precipitation 0.04 in 0.14 in 4.30 in (1903)
Month to date precipitation 1.14  
Year to date precipitation 38.66  
Snow  
Snow 0.00 in 0.00 in 0.00 in (2002)
Month to date snowfall 0.0  
Since 1 July snowfall 0.0  
Snow Depth -    
Sea Level Pressure  
Sea Level Pressure 30.21 in    
Wind  
Wind Speed 6 mph (NE)    
Max Wind Speed 15 mph    
Max Gust Speed 28 mph    
Visibility 10 miles    
Events      
T = Trace of Precipitation, MM = Missing Value Source: NWS Daily Summary

Daily Weather History Graph

Daily Weather History Graph

Search for Another Location

Airport:

Trip Planner

Search our weather history database for the weather conditions in past years. The results will help you decide how hot, cold, wet, or windy it might be!

Date:

Astronomy

Oct. 08, 2013 Rise Set
Actual Time 6:59 AM EDT 6:26 PM EDT
Civil Twilight 6:32 AM EDT 6:53 PM EDT
Nautical Twilight 6:00 AM EDT 7:25 PM EDT
Astronomical Twilight 5:29 AM EDT 7:57 PM EDT
Moon 10:52 AM EDT (10/8) 8:59 PM EDT (10/8)
Length of Visible Light 12h 21m
Length of Day
11h 26m
Waxing Crescent, 16% of the Moon is Illuminated
Oct 8
Waxing Crescent
Oct 11
First Quarter
Oct 18
Full
Oct 26
Last Quarter
Nov 3
New

Hourly Weather History & Observations

Time (EDT) Temp. Dew Point Humidity Pressure Visibility Wind Dir Wind Speed Gust Speed Precip Events Conditions
12:15 AM 62.6 °F 48.2 °F 59% 30.01 in 10.0 mi WSW 3.5 mph - N/A   Clear
12:35 AM 62.6 °F 48.2 °F 59% 30.02 in 10.0 mi WSW 3.5 mph - N/A   Clear
12:55 AM 62.6 °F 48.2 °F 59% 30.03 in 10.0 mi WSW 4.6 mph - N/A   Clear
1:15 AM 62.6 °F 48.2 °F 59% 30.03 in 10.0 mi West 5.8 mph - N/A   Clear
1:35 AM 62.6 °F 48.2 °F 59% 30.04 in 10.0 mi West 4.6 mph - 0.01 in   Clear
1:55 AM 60.8 °F 48.2 °F 63% 30.05 in 10.0 mi West 3.5 mph - 0.01 in   Clear
2:15 AM 60.8 °F 46.4 °F 59% 30.06 in 10.0 mi West 4.6 mph - N/A   Clear
2:35 AM 60.8 °F 46.4 °F 59% 30.07 in 10.0 mi West 4.6 mph - N/A   Clear
2:55 AM 60.8 °F 46.4 °F 59% 30.07 in 10.0 mi West 5.8 mph - N/A   Clear
3:15 AM 60.8 °F 46.4 °F 59% 30.08 in 10.0 mi West 4.6 mph - N/A   Clear
3:35 AM 60.8 °F 46.4 °F 59% 30.08 in 10.0 mi West 3.5 mph - N/A   Clear
3:55 AM 60.8 °F 44.6 °F 55% 30.09 in 10.0 mi West 5.8 mph - N/A   Clear
4:15 AM 59.0 °F 46.4 °F 63% 30.10 in 10.0 mi West 3.5 mph - N/A   Clear
4:35 AM 59.0 °F 46.4 °F 63% 30.11 in 10.0 mi WSW 4.6 mph - N/A   Clear
4:55 AM 59.0 °F 46.4 °F 63% 30.11 in 10.0 mi West 3.5 mph - N/A   Clear
5:15 AM 59.0 °F 46.4 °F 63% 30.13 in 10.0 mi West 3.5 mph - N/A   Clear
5:35 AM 59.0 °F 46.4 °F 63% 30.13 in 10.0 mi WNW 3.5 mph - N/A   Clear
5:55 AM 59.0 °F 46.4 °F 63% 30.14 in 10.0 mi Calm Calm - N/A   Clear
6:15 AM 57.2 °F 48.2 °F 72% 30.14 in 10.0 mi SSE 4.6 mph - N/A   Clear
6:35 AM 57.2 °F 46.4 °F 67% 30.15 in 10.0 mi West 6.9 mph - N/A   Clear
6:55 AM 57.2 °F 46.4 °F 67% 30.16 in 10.0 mi West 3.5 mph - N/A   Clear
7:15 AM 57.2 °F 46.4 °F 67% 30.17 in 10.0 mi West 3.5 mph - N/A   Clear
7:35 AM 57.2 °F 48.2 °F 72% 30.18 in 10.0 mi East 4.6 mph - N/A   Clear
7:55 AM 59.0 °F 51.8 °F 77% 30.19 in 10.0 mi NE 9.2 mph - N/A   Clear
8:15 AM 60.8 °F 50.0 °F 68% 30.21 in 10.0 mi ENE 4.6 mph - N/A   Clear
8:35 AM 60.8 °F 48.2 °F 63% 30.23 in 10.0 mi East 4.6 mph - N/A   Clear
8:55 AM 60.8 °F 48.2 °F 63% 30.23 in 10.0 mi Calm Calm - N/A   Clear
9:15 AM 62.6 °F 46.4 °F 55% 30.23 in 10.0 mi ENE 6.9 mph - N/A   Clear
9:35 AM 62.6 °F 46.4 °F 55% 30.24 in 10.0 mi South 4.6 mph - N/A   Clear
9:55 AM 62.6 °F 46.4 °F 55% 30.25 in 10.0 mi NE 4.6 mph 27.6 mph 0.01 in   Clear
10:15 AM 64.4 °F 46.4 °F 52% 30.25 in 10.0 mi SSE 4.6 mph - N/A   Clear
10:35 AM 64.4 °F 46.4 °F 52% 30.26 in 10.0 mi NE 8.1 mph - N/A   Clear
10:55 AM 64.4 °F 46.4 °F 52% 30.25 in 9.0 mi NE 13.8 mph 20.7 mph N/A   Clear
11:15 AM 64.4 °F 44.6 °F 49% 30.25 in 9.0 mi East 3.5 mph - N/A   Clear
11:35 AM 64.4 °F 46.4 °F 52% 30.25 in 8.0 mi NE 5.8 mph - N/A   Clear
11:55 AM 64.4 °F 46.4 °F 52% 30.25 in 10.0 mi NE 3.5 mph - 0.01 in   Clear
12:15 PM 66.2 °F 46.4 °F 49% 30.25 in 10.0 mi NE 9.2 mph - N/A   Clear
12:35 PM 66.2 °F 46.4 °F 49% 30.24 in 10.0 mi NE 8.1 mph - N/A   Clear
12:55 PM 68.0 °F 44.6 °F 43% 30.24 in 10.0 mi NE 11.5 mph 18.4 mph N/A   Clear
1:15 PM 68.0 °F 44.6 °F 43% 30.23 in 10.0 mi ENE 8.1 mph - N/A   Clear
1:35 PM 69.8 °F 46.4 °F 43% 30.23 in 10.0 mi South 3.5 mph 20.7 mph N/A   Clear
1:55 PM 69.8 °F 48.2 °F 46% 30.22 in 10.0 mi ENE 4.6 mph - N/A   Clear
2:15 PM 69.8 °F 46.4 °F 43% 30.23 in 10.0 mi ENE 6.9 mph 16.1 mph N/A   Clear
2:35 PM 69.8 °F 46.4 °F 43% 30.24 in 10.0 mi ENE 4.6 mph 17.3 mph N/A   Clear
2:55 PM 69.8 °F 46.4 °F 43% 30.24 in 10.0 mi NE 8.1 mph 16.1 mph N/A   Clear
3:15 PM 69.8 °F 44.6 °F 40% 30.24 in 10.0 mi NE 9.2 mph - N/A   Clear
3:35 PM 69.8 °F 46.4 °F 43% 30.24 in 10.0 mi East 6.9 mph 21.9 mph N/A   Clear
3:55 PM 69.8 °F 46.4 °F 43% 30.23 in 10.0 mi NE 9.2 mph 21.9 mph N/A   Clear
4:15 PM 69.8 °F 44.6 °F 40% 30.24 in 10.0 mi NE 9.2 mph 16.1 mph N/A   Clear
4:35 PM 68.0 °F 42.8 °F 40% 30.24 in 10.0 mi NE 12.7 mph 16.1 mph N/A   Clear
4:55 PM 66.2 °F 44.6 °F 46% 30.23 in 10.0 mi ENE 11.5 mph 23.0 mph N/A   Clear
5:15 PM 66.2 °F 44.6 °F 46% 30.24 in 10.0 mi NE 8.1 mph 17.3 mph N/A   Clear
5:35 PM 66.2 °F 44.6 °F 46% 30.25 in 10.0 mi East 4.6 mph 16.1 mph N/A   Clear
5:55 PM 66.2 °F 44.6 °F 46% 30.26 in 10.0 mi ENE 5.8 mph - N/A   Clear
6:15 PM 66.2 °F 44.6 °F 46% 30.27 in 10.0 mi NE 9.2 mph - N/A   Clear
6:35 PM 66.2 °F 42.8 °F 43% 30.27 in 10.0 mi NE 9.2 mph - N/A   Clear
6:55 PM 64.4 °F 42.8 °F 45% 30.28 in 10.0 mi NE 10.4 mph - 0.01 in   Clear
7:15 PM 64.4 °F 44.6 °F 49% 30.28 in 10.0 mi NE 11.5 mph 16.1 mph N/A   Clear
7:35 PM 64.4 °F 44.6 °F 49% 30.28 in 10.0 mi NE 9.2 mph - N/A   Clear
7:55 PM 64.4 °F 44.6 °F 49% 30.28 in 10.0 mi NE 15.0 mph 24.2 mph N/A   Clear
8:15 PM 64.4 °F 44.6 °F 49% 30.28 in 10.0 mi NNE 12.7 mph - N/A   Clear
8:35 PM 64.4 °F 44.6 °F 49% 30.29 in 10.0 mi NE 10.4 mph - N/A   Clear
8:55 PM 64.4 °F 44.6 °F 49% 30.30 in 10.0 mi NE 6.9 mph - N/A   Clear
9:15 PM 64.4 °F 44.6 °F 49% 30.31 in 10.0 mi NE 9.2 mph - N/A   Clear
9:35 PM 64.4 °F 44.6 °F 49% 30.31 in 10.0 mi NE 9.2 mph - N/A   Clear
9:55 PM 64.4 °F 44.6 °F 49% 30.32 in 10.0 mi ENE 11.5 mph - N/A   Clear
10:15 PM 64.4 °F 46.4 °F 52% 30.32 in 10.0 mi NE 10.4 mph - N/A   Clear
10:35 PM 62.6 °F 44.6 °F 52% 30.33 in 10.0 mi NE 10.4 mph - N/A   Clear
10:55 PM 62.6 °F 44.6 °F 52% 30.33 in 10.0 mi NNE 10.4 mph - N/A   Clear
11:15 PM 62.6 °F 44.6 °F 52% 30.33 in 10.0 mi NE 8.1 mph - N/A   Clear
11:35 PM 62.6 °F 44.6 °F 52% 30.33 in 10.0 mi NE 10.4 mph - N/A   Clear
11:55 PM 62.6 °F 42.8 °F 48% 30.33 in 10.0 mi NE 9.2 mph - N/A   Clear